Year,Month,Day,Hour,Minute,Value (Times are PST for temperature in C)
2009,04,16,00,00,7.10
2009,04,16,00,01,7.10
2009,04,16,00,02,7.00
2009,04,16,00,03,7.00
2009,04,16,00,04,7.00
2009,04,16,00,05,7.00
2009,04,16,00,06,7.00
2009,04,16,00,07,7.00
2009,04,16,00,08,7.00
2009,04,16,00,09,7.00
2009,04,16,00,10,6.90
2009,04,16,00,11,6.90
2009,04,16,00,12,6.90
2009,04,16,00,13,6.90
2009,04,16,00,14,6.90
2009,04,16,00,15,6.90
2009,04,16,00,16,6.80
2009,04,16,00,17,6.80
2009,04,16,00,18,6.80
2009,04,16,00,19,6.80
2009,04,16,00,20,6.70
2009,04,16,00,21,6.70
2009,04,16,00,22,6.70
2009,04,16,00,23,6.60
2009,04,16,00,24,6.60
2009,04,16,00,25,6.60
2009,04,16,00,26,6.50
2009,04,16,00,27,6.50
2009,04,16,00,28,6.40
2009,04,16,00,29,6.40
2009,04,16,00,30,6.40
2009,04,16,00,31,6.40
2009,04,16,00,32,6.30
2009,04,16,00,33,6.30
2009,04,16,00,34,6.30
2009,04,16,00,35,6.30
2009,04,16,00,36,6.30
2009,04,16,00,37,6.30
2009,04,16,00,38,6.30
2009,04,16,00,39,6.30
2009,04,16,00,40,6.30
2009,04,16,00,41,6.30
2009,04,16,00,42,6.30
2009,04,16,00,43,6.30
2009,04,16,00,44,6.30
2009,04,16,00,45,6.30
2009,04,16,00,46,6.30
2009,04,16,00,47,6.30
2009,04,16,00,48,6.30
2009,04,16,00,49,6.30
2009,04,16,00,50,6.30
2009,04,16,00,51,6.30
2009,04,16,00,52,6.30
2009,04,16,00,53,6.30
2009,04,16,00,54,6.40
2009,04,16,00,55,6.30
2009,04,16,00,56,6.30
2009,04,16,00,57,6.30
2009,04,16,00,58,6.20
2009,04,16,00,59,6.20
2009,04,16,01,00,6.20
2009,04,16,01,01,6.10
2009,04,16,01,02,6.10
2009,04,16,01,03,6.10
2009,04,16,01,04,6.10
2009,04,16,01,05,6.10
2009,04,16,01,06,6.10
2009,04,16,01,07,6.10
2009,04,16,01,08,6.10
2009,04,16,01,09,6.10
2009,04,16,01,10,6.10
2009,04,16,01,11,6.10
2009,04,16,01,12,6.10
2009,04,16,01,13,6.10
2009,04,16,01,14,6.10
2009,04,16,01,15,6.00
2009,04,16,01,16,6.00
2009,04,16,01,17,6.00
2009,04,16,01,18,5.90
2009,04,16,01,19,5.90
2009,04,16,01,20,5.90
2009,04,16,01,21,5.80
2009,04,16,01,22,5.80
2009,04,16,01,23,5.80
2009,04,16,01,24,5.70
2009,04,16,01,25,5.70
2009,04,16,01,26,5.60
2009,04,16,01,27,5.60
2009,04,16,01,28,5.60
2009,04,16,01,29,5.50
2009,04,16,01,30,5.50
2009,04,16,01,31,5.40
2009,04,16,01,32,5.40
2009,04,16,01,33,5.40
2009,04,16,01,34,5.40
2009,04,16,01,35,5.30
2009,04,16,01,36,5.30
2009,04,16,01,37,5.30
2009,04,16,01,38,5.20
2009,04,16,01,39,5.20
2009,04,16,01,40,5.10
2009,04,16,01,41,5.10
2009,04,16,01,42,5.10
2009,04,16,01,43,5.00
2009,04,16,01,44,5.00
2009,04,16,01,45,5.00
2009,04,16,01,46,4.90
2009,04,16,01,47,4.90
2009,04,16,01,48,4.90
2009,04,16,01,49,4.90
2009,04,16,01,50,4.90
2009,04,16,01,51,4.90
2009,04,16,01,52,4.90
2009,04,16,01,53,4.90
2009,04,16,01,54,4.90
2009,04,16,01,55,4.90
2009,04,16,01,56,4.90
2009,04,16,01,57,4.80
2009,04,16,01,58,4.80
2009,04,16,01,59,4.80
2009,04,16,02,00,4.80
2009,04,16,02,01,4.70
2009,04,16,02,02,4.70
2009,04,16,02,03,4.70
2009,04,16,02,04,4.60
2009,04,16,02,05,4.60
2009,04,16,02,06,4.50
2009,04,16,02,07,4.50
2009,04,16,02,08,4.50
2009,04,16,02,09,4.40
2009,04,16,02,10,4.40
2009,04,16,02,11,4.40
2009,04,16,02,12,4.30
2009,04,16,02,13,4.30
2009,04,16,02,14,4.30
2009,04,16,02,15,4.30
2009,04,16,02,16,4.20
2009,04,16,02,17,4.20
2009,04,16,02,18,4.20
2009,04,16,02,19,4.10
2009,04,16,02,20,4.10
2009,04,16,02,21,4.00
2009,04,16,02,22,3.90
2009,04,16,02,23,3.90
2009,04,16,02,24,3.90
2009,04,16,02,25,3.90
2009,04,16,02,26,3.90
2009,04,16,02,27,3.90
2009,04,16,02,28,3.90
2009,04,16,02,29,3.90
2009,04,16,02,30,3.80
2009,04,16,02,31,3.80
2009,04,16,02,32,3.80
2009,04,16,02,33,3.80
2009,04,16,02,34,3.80
2009,04,16,02,35,3.70
2009,04,16,02,36,3.70
2009,04,16,02,37,3.70
2009,04,16,02,38,3.70
2009,04,16,02,39,3.70
2009,04,16,02,40,3.60
2009,04,16,02,41,3.60
2009,04,16,02,42,3.60
2009,04,16,02,43,3.50
2009,04,16,02,44,3.50
2009,04,16,02,45,3.40
2009,04,16,02,46,3.40
2009,04,16,02,47,3.40
2009,04,16,02,48,3.40
2009,04,16,02,49,3.40
2009,04,16,02,50,3.30
2009,04,16,02,51,3.30
2009,04,16,02,52,3.30
2009,04,16,02,53,3.30
2009,04,16,02,54,3.30
2009,04,16,02,55,3.20
2009,04,16,02,56,3.20
2009,04,16,02,57,3.20
2009,04,16,02,58,3.20
2009,04,16,02,59,3.20
2009,04,16,03,00,3.20
2009,04,16,03,01,3.10
2009,04,16,03,02,3.10
2009,04,16,03,03,3.10
2009,04,16,03,04,3.10
2009,04,16,03,05,3.00
2009,04,16,03,06,3.00
2009,04,16,03,07,3.00
2009,04,16,03,08,2.90
2009,04,16,03,09,2.90
2009,04,16,03,10,2.90
2009,04,16,03,11,2.90
2009,04,16,03,12,2.80
2009,04,16,03,13,2.80
2009,04,16,03,14,2.80
2009,04,16,03,15,2.70
2009,04,16,03,16,2.70
2009,04,16,03,17,2.70
2009,04,16,03,18,2.70
2009,04,16,03,19,2.60
2009,04,16,03,20,2.60
2009,04,16,03,21,2.60
2009,04,16,03,22,2.60
2009,04,16,03,23,2.50
2009,04,16,03,24,2.50
2009,04,16,03,25,2.50
2009,04,16,03,26,2.40
2009,04,16,03,27,2.40
2009,04,16,03,28,2.40
2009,04,16,03,29,2.40
2009,04,16,03,30,2.40
2009,04,16,03,31,2.30
2009,04,16,03,32,2.30
2009,04,16,03,33,2.30
2009,04,16,03,34,2.30
2009,04,16,03,35,2.30
2009,04,16,03,36,2.20
2009,04,16,03,37,2.20
2009,04,16,03,38,2.20
2009,04,16,03,39,2.20
2009,04,16,03,40,2.20
2009,04,16,03,41,2.10
2009,04,16,03,42,2.10
2009,04,16,03,43,2.10
2009,04,16,03,44,2.10
2009,04,16,03,45,2.10
2009,04,16,03,46,2.10
2009,04,16,03,47,2.00
2009,04,16,03,48,2.00
2009,04,16,03,49,2.00
2009,04,16,03,50,2.00
2009,04,16,03,51,1.90
2009,04,16,03,52,1.90
2009,04,16,03,53,1.90
2009,04,16,03,54,1.90
2009,04,16,03,55,1.90
2009,04,16,03,56,1.80
2009,04,16,03,57,1.80
2009,04,16,03,58,1.80
2009,04,16,03,59,1.80
2009,04,16,04,00,1.80
2009,04,16,04,01,1.80
2009,04,16,04,02,1.80
2009,04,16,04,03,1.70
2009,04,16,04,04,1.70
2009,04,16,04,05,1.70
2009,04,16,04,06,1.70
2009,04,16,04,07,1.70
2009,04,16,04,08,1.70
2009,04,16,04,09,1.70
2009,04,16,04,10,1.70
2009,04,16,04,11,1.70
2009,04,16,04,12,1.70
2009,04,16,04,13,1.70
2009,04,16,04,14,1.80
2009,04,16,04,15,1.80
2009,04,16,04,16,1.80
2009,04,16,04,17,1.80
2009,04,16,04,18,1.80
2009,04,16,04,19,1.80
2009,04,16,04,20,1.80
2009,04,16,04,21,1.80
2009,04,16,04,22,1.80
2009,04,16,04,23,1.80
2009,04,16,04,24,1.80
2009,04,16,04,25,1.80
2009,04,16,04,26,1.80
2009,04,16,04,27,1.80
2009,04,16,04,28,1.80
2009,04,16,04,29,1.80
2009,04,16,04,30,1.80
2009,04,16,04,31,1.80
2009,04,16,04,32,1.80
2009,04,16,04,33,1.80
2009,04,16,04,34,1.80
2009,04,16,04,35,1.80
2009,04,16,04,36,1.80
2009,04,16,04,37,1.80
2009,04,16,04,38,1.80
2009,04,16,04,39,1.80
2009,04,16,04,40,1.80
2009,04,16,04,41,1.80
2009,04,16,04,42,1.80
2009,04,16,04,43,1.70
2009,04,16,04,44,1.70
2009,04,16,04,45,1.70
2009,04,16,04,46,1.70
2009,04,16,04,47,1.70
2009,04,16,04,48,1.70
2009,04,16,04,49,1.60
2009,04,16,04,50,1.60
2009,04,16,04,51,1.60
2009,04,16,04,52,1.60
2009,04,16,04,53,1.60
2009,04,16,04,54,1.60
2009,04,16,04,55,1.60
2009,04,16,04,56,1.60
2009,04,16,04,57,1.60
2009,04,16,04,58,1.60
2009,04,16,04,59,1.60
2009,04,16,05,00,1.60
2009,04,16,05,01,1.60
2009,04,16,05,02,1.50
2009,04,16,05,03,1.50
2009,04,16,05,04,1.50
2009,04,16,05,05,1.50
2009,04,16,05,06,1.40
2009,04,16,05,07,1.40
2009,04,16,05,08,1.40
2009,04,16,05,09,1.40
2009,04,16,05,10,1.40
2009,04,16,05,11,1.40
2009,04,16,05,12,1.40
2009,04,16,05,13,1.40
2009,04,16,05,14,1.40
2009,04,16,05,15,1.40
2009,04,16,05,16,1.30
2009,04,16,05,17,1.30
2009,04,16,05,18,1.30
2009,04,16,05,19,1.30
2009,04,16,05,20,1.30
2009,04,16,05,21,1.30
2009,04,16,05,22,1.30
2009,04,16,05,23,1.30
2009,04,16,05,24,1.30
2009,04,16,05,25,1.30
2009,04,16,05,26,1.30
2009,04,16,05,27,1.30
2009,04,16,05,28,1.30
2009,04,16,05,29,1.30
2009,04,16,05,30,1.30
2009,04,16,05,31,1.30
2009,04,16,05,32,1.30
2009,04,16,05,33,1.30
2009,04,16,05,34,1.30
2009,04,16,05,35,1.30
2009,04,16,05,36,1.30
2009,04,16,05,37,1.30
2009,04,16,05,38,1.30
2009,04,16,05,39,1.30
2009,04,16,05,40,1.30
2009,04,16,05,41,1.30
2009,04,16,05,42,1.30
2009,04,16,05,43,1.30
2009,04,16,05,44,1.30
2009,04,16,05,45,1.30
2009,04,16,05,46,1.30
2009,04,16,05,47,1.30
2009,04,16,05,48,1.30
2009,04,16,05,49,1.30
2009,04,16,05,50,1.30
2009,04,16,05,51,1.30
2009,04,16,05,52,1.30
2009,04,16,05,53,1.30
2009,04,16,05,54,1.30
2009,04,16,05,55,1.30
2009,04,16,05,56,1.30
2009,04,16,05,57,1.30
2009,04,16,05,58,1.30
2009,04,16,05,59,1.30
2009,04,16,06,00,1.30
2009,04,16,06,01,1.30
2009,04,16,06,02,1.30
2009,04,16,06,03,1.30
2009,04,16,06,04,1.30
2009,04,16,06,05,1.30
2009,04,16,06,06,1.30
2009,04,16,06,07,1.30
2009,04,16,06,08,1.30
2009,04,16,06,09,1.30
2009,04,16,06,10,1.30
2009,04,16,06,11,1.30
2009,04,16,06,12,1.30
2009,04,16,06,13,1.30
2009,04,16,06,14,1.30
2009,04,16,06,15,1.30
2009,04,16,06,16,1.30
2009,04,16,06,17,1.30
2009,04,16,06,18,1.30
2009,04,16,06,19,1.30
2009,04,16,06,20,1.30
2009,04,16,06,21,1.40
2009,04,16,06,22,1.40
2009,04,16,06,23,1.40
2009,04,16,06,24,1.50
2009,04,16,06,25,1.50
2009,04,16,06,26,1.60
2009,04,16,06,27,1.60
2009,04,16,06,28,1.60
2009,04,16,06,29,1.60
2009,04,16,06,30,1.60
2009,04,16,06,31,1.60
2009,04,16,06,32,1.60
2009,04,16,06,33,1.70
2009,04,16,06,34,1.70
2009,04,16,06,35,1.70
2009,04,16,06,36,1.70
2009,04,16,06,37,1.70
2009,04,16,06,38,1.70
2009,04,16,06,39,1.80
2009,04,16,06,40,1.80
2009,04,16,06,41,1.80
2009,04,16,06,42,1.80
2009,04,16,06,43,1.80
2009,04,16,06,44,1.90
2009,04,16,06,45,1.90
2009,04,16,06,46,1.90
2009,04,16,06,47,1.90
2009,04,16,06,48,1.90
2009,04,16,06,49,1.90
2009,04,16,06,50,1.90
2009,04,16,06,51,2.00
2009,04,16,06,52,2.00
2009,04,16,06,53,2.00
2009,04,16,06,54,2.00
2009,04,16,06,55,2.10
2009,04,16,06,56,2.10
2009,04,16,06,57,2.10
2009,04,16,06,58,2.10
2009,04,16,06,59,2.10
2009,04,16,07,00,2.10
2009,04,16,07,01,2.20
2009,04,16,07,02,2.20
2009,04,16,07,03,2.20
2009,04,16,07,04,2.20
2009,04,16,07,05,2.10
2009,04,16,07,06,2.10
2009,04,16,07,07,2.10
2009,04,16,07,08,2.10
2009,04,16,07,09,2.10
2009,04,16,07,10,2.10
2009,04,16,07,11,2.10
2009,04,16,07,12,2.10
2009,04,16,07,13,2.10
2009,04,16,07,14,2.10
2009,04,16,07,15,2.10
2009,04,16,07,16,2.10
2009,04,16,07,17,2.10
2009,04,16,07,18,2.10
2009,04,16,07,19,2.10
2009,04,16,07,20,2.10
2009,04,16,07,21,2.10
2009,04,16,07,22,2.10
2009,04,16,07,23,2.10
2009,04,16,07,24,2.10
2009,04,16,07,25,2.10
2009,04,16,07,26,2.10
2009,04,16,07,27,2.10
2009,04,16,07,28,2.10
2009,04,16,07,29,2.20
2009,04,16,07,30,2.20
2009,04,16,07,31,2.20
2009,04,16,07,32,2.20
2009,04,16,07,33,2.20
2009,04,16,07,34,2.30
2009,04,16,07,35,2.30
2009,04,16,07,36,2.40
2009,04,16,07,37,2.40
2009,04,16,07,38,2.40
2009,04,16,07,39,2.50
2009,04,16,07,40,2.50
2009,04,16,07,41,2.50
2009,04,16,07,42,2.60
2009,04,16,07,43,2.60
2009,04,16,07,44,2.70
2009,04,16,07,45,2.70
2009,04,16,07,46,2.70
2009,04,16,07,47,2.80
2009,04,16,07,48,2.80
2009,04,16,07,49,2.90
2009,04,16,07,50,2.90
2009,04,16,07,51,3.00
2009,04,16,07,52,3.00
2009,04,16,07,53,3.10
2009,04,16,07,54,3.20
2009,04,16,07,55,3.20
2009,04,16,07,56,3.20
2009,04,16,07,57,3.20
2009,04,16,07,58,3.20
2009,04,16,07,59,3.20
2009,04,16,08,00,3.20
2009,04,16,08,01,3.30
2009,04,16,08,02,3.30
2009,04,16,08,03,3.30
2009,04,16,08,04,3.40
2009,04,16,08,05,3.40
2009,04,16,08,06,3.50
2009,04,16,08,07,3.50
2009,04,16,08,08,3.60
2009,04,16,08,09,3.60
2009,04,16,08,10,3.60
2009,04,16,08,11,3.70
2009,04,16,08,12,3.70
2009,04,16,08,13,3.80
2009,04,16,08,14,3.80
2009,04,16,08,15,3.90
2009,04,16,08,16,4.00
2009,04,16,08,17,4.00
2009,04,16,08,18,4.10
2009,04,16,08,19,4.10
2009,04,16,08,20,4.20
2009,04,16,08,21,4.20
2009,04,16,08,22,4.30
2009,04,16,08,23,4.30
2009,04,16,08,24,4.30
2009,04,16,08,25,4.40
2009,04,16,08,26,4.40
2009,04,16,08,27,4.40
2009,04,16,08,28,4.50
2009,04,16,08,29,4.50
2009,04,16,08,30,4.60
2009,04,16,08,31,4.60
2009,04,16,08,32,4.60
2009,04,16,08,33,4.70
2009,04,16,08,34,4.70
2009,04,16,08,35,4.70
2009,04,16,08,36,4.70
2009,04,16,08,37,4.80
2009,04,16,08,38,4.80
2009,04,16,08,39,4.80
2009,04,16,08,40,4.90
2009,04,16,08,41,4.90
2009,04,16,08,42,4.90
2009,04,16,08,43,4.90
2009,04,16,08,44,5.00
2009,04,16,08,45,5.00
2009,04,16,08,46,5.00
2009,04,16,08,47,5.10
2009,04,16,08,48,5.10
2009,04,16,08,49,5.10
2009,04,16,08,50,5.10
2009,04,16,08,51,5.10
2009,04,16,08,52,5.20
2009,04,16,08,53,5.20
2009,04,16,08,54,5.20
2009,04,16,08,55,5.20
2009,04,16,08,56,5.30
2009,04,16,08,57,5.30
2009,04,16,08,58,5.30
2009,04,16,08,59,5.40
2009,04,16,09,00,5.40
2009,04,16,09,01,5.40
2009,04,16,09,02,5.40
2009,04,16,09,03,5.50
2009,04,16,09,04,5.50
2009,04,16,09,05,5.60
2009,04,16,09,06,5.70
2009,04,16,09,07,5.70
2009,04,16,09,08,5.70
2009,04,16,09,09,5.70
2009,04,16,09,10,5.70
2009,04,16,09,11,5.70
2009,04,16,09,12,5.80
2009,04,16,09,13,5.80
2009,04,16,09,14,5.80
2009,04,16,09,15,5.80
2009,04,16,09,16,5.80
2009,04,16,09,17,5.90
2009,04,16,09,18,5.90
2009,04,16,09,19,5.90
2009,04,16,09,20,5.90
2009,04,16,09,21,5.90
2009,04,16,09,22,5.90
2009,04,16,09,23,5.90
2009,04,16,09,24,6.00
2009,04,16,09,25,6.00
2009,04,16,09,26,6.10
2009,04,16,09,27,6.10
2009,04,16,09,28,6.10
2009,04,16,09,29,6.10
2009,04,16,09,30,6.20
2009,04,16,09,31,6.20
2009,04,16,09,32,6.20
2009,04,16,09,33,6.20
2009,04,16,09,34,6.30
2009,04,16,09,35,6.30
2009,04,16,09,36,6.30
2009,04,16,09,37,6.30
2009,04,16,09,38,6.30
2009,04,16,09,39,6.30
2009,04,16,09,40,6.30
2009,04,16,09,41,6.30
2009,04,16,09,42,6.20
2009,04,16,09,43,6.30
2009,04,16,09,44,6.30
2009,04,16,09,45,6.30
2009,04,16,09,46,6.30
2009,04,16,09,47,6.20
2009,04,16,09,48,6.20
2009,04,16,09,49,6.20
2009,04,16,09,50,6.20
2009,04,16,09,51,6.10
2009,04,16,09,52,6.10
2009,04,16,09,53,6.10
2009,04,16,09,54,6.10
2009,04,16,09,55,6.10
2009,04,16,09,56,6.10
2009,04,16,09,57,6.10
2009,04,16,09,58,6.10
2009,04,16,09,59,6.10
2009,04,16,10,00,6.00
2009,04,16,10,01,6.00
2009,04,16,10,02,5.90
2009,04,16,10,03,5.90
2009,04,16,10,04,5.90
2009,04,16,10,05,5.90
2009,04,16,10,06,5.90
2009,04,16,10,07,5.90
2009,04,16,10,08,5.80
2009,04,16,10,09,5.80
2009,04,16,10,10,5.80
2009,04,16,10,11,5.80
2009,04,16,10,12,5.80
2009,04,16,10,13,5.80
2009,04,16,10,14,5.80
2009,04,16,10,15,5.80
2009,04,16,10,16,5.80
2009,04,16,10,17,5.80
2009,04,16,10,18,5.80
2009,04,16,10,19,5.80
2009,04,16,10,20,5.80
2009,04,16,10,21,5.80
2009,04,16,10,22,5.80
2009,04,16,10,23,5.90
2009,04,16,10,24,5.90
2009,04,16,10,25,5.90
2009,04,16,10,26,5.90
2009,04,16,10,27,5.90
2009,04,16,10,28,6.00
2009,04,16,10,29,6.10
2009,04,16,10,30,6.10
2009,04,16,10,31,6.10
2009,04,16,10,32,6.20
2009,04,16,10,33,6.20
2009,04,16,10,34,6.30
2009,04,16,10,35,6.30
2009,04,16,10,36,6.40
2009,04,16,10,37,6.40
2009,04,16,10,38,6.50
2009,04,16,10,39,6.60
2009,04,16,10,40,6.60
2009,04,16,10,41,6.60
2009,04,16,10,42,6.50
2009,04,16,10,43,6.50
2009,04,16,10,44,6.50
2009,04,16,10,45,6.60
2009,04,16,10,46,6.60
2009,04,16,10,47,6.60
2009,04,16,10,48,6.70
2009,04,16,10,49,6.70
2009,04,16,10,50,6.70
2009,04,16,10,51,6.70
2009,04,16,10,52,6.70
2009,04,16,10,53,6.70
2009,04,16,10,54,6.60
2009,04,16,10,55,6.60
2009,04,16,10,56,6.60
2009,04,16,10,57,6.60
2009,04,16,10,58,6.70
2009,04,16,10,59,6.70
2009,04,16,11,00,6.70
2009,04,16,11,01,6.70
2009,04,16,11,02,6.70
2009,04,16,11,03,6.70
2009,04,16,11,04,6.80
2009,04,16,11,05,6.80
2009,04,16,11,06,6.80
2009,04,16,11,07,6.80
2009,04,16,11,08,6.90
2009,04,16,11,09,6.90
2009,04,16,11,10,7.00
2009,04,16,11,11,7.00
2009,04,16,11,12,7.00
2009,04,16,11,13,7.00
2009,04,16,11,14,7.10
2009,04,16,11,15,7.10
2009,04,16,11,16,7.10
2009,04,16,11,17,7.10
2009,04,16,11,18,7.10
2009,04,16,11,19,7.10
2009,04,16,11,20,7.10
2009,04,16,11,21,7.10
2009,04,16,11,22,7.10
2009,04,16,11,23,7.20
2009,04,16,11,24,7.20
2009,04,16,11,25,7.30
2009,04,16,11,26,7.40
2009,04,16,11,27,7.40
2009,04,16,11,28,7.50
2009,04,16,11,29,7.50
2009,04,16,11,30,7.50
2009,04,16,11,31,7.50
2009,04,16,11,32,7.60
2009,04,16,11,33,7.70
2009,04,16,11,34,7.70
2009,04,16,11,35,7.80
2009,04,16,11,36,7.80
2009,04,16,11,37,7.80
2009,04,16,11,38,7.90
2009,04,16,11,39,7.90
2009,04,16,11,40,8.00
2009,04,16,11,41,8.00
2009,04,16,11,42,8.10
2009,04,16,11,43,8.10
2009,04,16,11,44,8.10
2009,04,16,11,45,8.20
2009,04,16,11,46,8.30
2009,04,16,11,47,8.30
2009,04,16,11,48,8.40
2009,04,16,11,49,8.40
2009,04,16,11,50,8.40
2009,04,16,11,51,8.40
2009,04,16,11,52,8.50
2009,04,16,11,53,8.60
2009,04,16,11,54,8.50
2009,04,16,11,55,8.50
2009,04,16,11,56,8.60
2009,04,16,11,57,8.70
2009,04,16,11,58,8.80
2009,04,16,11,59,8.80
2009,04,16,12,00,8.80
2009,04,16,12,01,8.80
2009,04,16,12,02,8.80
2009,04,16,12,03,8.90
2009,04,16,12,04,8.90
2009,04,16,12,05,9.00
2009,04,16,12,06,8.90
2009,04,16,12,07,8.90
2009,04,16,12,08,9.00
2009,04,16,12,09,9.00
2009,04,16,12,10,9.00
2009,04,16,12,11,9.00
2009,04,16,12,12,9.10
2009,04,16,12,13,9.10
2009,04,16,12,14,9.20
2009,04,16,12,15,9.30
2009,04,16,12,16,9.40
2009,04,16,12,17,9.50
2009,04,16,12,18,9.70
2009,04,16,12,19,9.90
2009,04,16,12,20,10.00
2009,04,16,12,21,9.90
2009,04,16,12,22,9.70
2009,04,16,12,23,9.50
2009,04,16,12,24,9.40
2009,04,16,12,25,9.20
2009,04,16,12,26,9.10
2009,04,16,12,27,8.90
2009,04,16,12,28,8.90
2009,04,16,12,29,8.90
2009,04,16,12,30,9.00
2009,04,16,12,31,9.10
2009,04,16,12,32,9.10
2009,04,16,12,33,9.10
2009,04,16,12,34,9.20
2009,04,16,12,35,9.20
2009,04,16,12,36,9.20
2009,04,16,12,37,9.20
2009,04,16,12,38,9.20
2009,04,16,12,39,9.30
2009,04,16,12,40,9.30
2009,04,16,12,41,9.30
2009,04,16,12,42,9.30
2009,04,16,12,43,9.40
2009,04,16,12,44,9.40
2009,04,16,12,45,9.40
2009,04,16,12,46,9.40
2009,04,16,12,47,9.40
2009,04,16,12,48,9.40
2009,04,16,12,49,9.40
2009,04,16,12,50,9.40
2009,04,16,12,51,9.50
2009,04,16,12,52,9.50
2009,04,16,12,53,9.60
2009,04,16,12,54,9.60
2009,04,16,12,55,9.60
2009,04,16,12,56,9.70
2009,04,16,12,57,9.60
2009,04,16,12,58,9.60
2009,04,16,12,59,9.50
2009,04,16,13,00,9.40
2009,04,16,13,01,9.30
2009,04,16,13,02,9.20
2009,04,16,13,03,9.30
2009,04,16,13,04,9.30
2009,04,16,13,05,9.40
2009,04,16,13,06,9.40
2009,04,16,13,07,9.30
2009,04,16,13,08,9.20
2009,04,16,13,09,9.20
2009,04,16,13,10,9.30
2009,04,16,13,11,9.30
2009,04,16,13,12,9.30
2009,04,16,13,13,9.30
2009,04,16,13,14,9.30
2009,04,16,13,15,9.30
2009,04,16,13,16,9.30
2009,04,16,13,17,9.30
2009,04,16,13,18,9.30
2009,04,16,13,19,9.40
2009,04,16,13,20,9.30
2009,04,16,13,21,9.30
2009,04,16,13,22,9.30
2009,04,16,13,23,9.30
2009,04,16,13,24,9.40
2009,04,16,13,25,9.40
2009,04,16,13,26,9.40
2009,04,16,13,27,9.50
2009,04,16,13,28,9.60
2009,04,16,13,29,9.60
2009,04,16,13,30,9.60
2009,04,16,13,31,9.60
2009,04,16,13,32,9.60
2009,04,16,13,33,9.60
2009,04,16,13,34,9.70
2009,04,16,13,35,9.80
2009,04,16,13,36,9.80
2009,04,16,13,37,9.80
2009,04,16,13,38,9.70
2009,04,16,13,39,9.60
2009,04,16,13,40,9.60
2009,04,16,13,41,9.70
2009,04,16,13,42,9.80
2009,04,16,13,43,9.80
2009,04,16,13,44,9.80
2009,04,16,13,45,9.70
2009,04,16,13,46,9.80
2009,04,16,13,47,9.70
2009,04,16,13,48,9.70
2009,04,16,13,49,9.70
2009,04,16,13,50,9.70
2009,04,16,13,51,9.70
2009,04,16,13,52,9.70
2009,04,16,13,53,9.70
2009,04,16,13,54,9.80
2009,04,16,13,55,9.90
2009,04,16,13,56,10.00
2009,04,16,13,57,10.10
2009,04,16,13,58,10.20
2009,04,16,13,59,10.30
2009,04,16,14,00,10.40
2009,04,16,14,01,10.50
2009,04,16,14,02,10.60
2009,04,16,14,03,10.60
2009,04,16,14,04,10.60
2009,04,16,14,05,10.70
2009,04,16,14,06,10.70
2009,04,16,14,07,10.80
2009,04,16,14,08,10.80
2009,04,16,14,09,10.80
2009,04,16,14,10,10.80
2009,04,16,14,11,10.90
2009,04,16,14,12,10.90
2009,04,16,14,13,10.90
2009,04,16,14,14,10.90
2009,04,16,14,15,10.90
2009,04,16,14,16,10.80
2009,04,16,14,17,10.80
2009,04,16,14,18,10.70
2009,04,16,14,19,10.70
2009,04,16,14,20,10.70
2009,04,16,14,21,10.60
2009,04,16,14,22,10.60
2009,04,16,14,23,10.60
2009,04,16,14,24,10.60
2009,04,16,14,25,10.60
2009,04,16,14,26,10.50
2009,04,16,14,27,10.50
2009,04,16,14,28,10.40
2009,04,16,14,29,10.40
2009,04,16,14,30,10.50
2009,04,16,14,31,10.60
2009,04,16,14,32,10.60
2009,04,16,14,33,10.60
2009,04,16,14,34,10.70
2009,04,16,14,35,10.70
2009,04,16,14,36,10.80
2009,04,16,14,37,10.90
2009,04,16,14,38,11.00
2009,04,16,14,39,11.10
2009,04,16,14,40,11.20
2009,04,16,14,41,11.20
2009,04,16,14,42,11.20
2009,04,16,14,43,11.30
2009,04,16,14,44,11.30
2009,04,16,14,45,11.30
2009,04,16,14,46,11.30
2009,04,16,14,47,11.40
2009,04,16,14,48,11.50
2009,04,16,14,49,11.60
2009,04,16,14,50,11.60
2009,04,16,14,51,11.70
2009,04,16,14,52,11.70
2009,04,16,14,53,11.80
2009,04,16,14,54,11.80
2009,04,16,14,55,11.70
2009,04,16,14,56,11.70
2009,04,16,14,57,11.70
2009,04,16,14,58,11.70
2009,04,16,14,59,11.70
2009,04,16,15,00,11.80
2009,04,16,15,01,11.80
2009,04,16,15,02,11.90
2009,04,16,15,03,11.90
2009,04,16,15,04,11.90
2009,04,16,15,05,11.90
2009,04,16,15,06,11.90
2009,04,16,15,07,11.90
2009,04,16,15,08,11.90
2009,04,16,15,09,11.80
2009,04,16,15,10,11.70
2009,04,16,15,11,11.60
2009,04,16,15,12,11.50
2009,04,16,15,13,11.40
2009,04,16,15,14,11.30
2009,04,16,15,15,11.20
2009,04,16,15,16,11.20
2009,04,16,15,17,11.20
2009,04,16,15,18,11.30
2009,04,16,15,19,11.30
2009,04,16,15,20,11.30
2009,04,16,15,21,11.30
2009,04,16,15,22,11.30
2009,04,16,15,23,11.30
2009,04,16,15,24,11.30
2009,04,16,15,25,11.30
2009,04,16,15,26,11.30
2009,04,16,15,27,11.40
2009,04,16,15,28,11.50
2009,04,16,15,29,11.60
2009,04,16,15,30,11.60
2009,04,16,15,31,11.60
2009,04,16,15,32,11.70
2009,04,16,15,33,11.70
2009,04,16,15,34,11.60
2009,04,16,15,35,11.60
2009,04,16,15,36,11.60
2009,04,16,15,37,11.60
2009,04,16,15,38,11.60
2009,04,16,15,39,11.60
2009,04,16,15,40,11.60
2009,04,16,15,41,11.60
2009,04,16,15,42,11.60
2009,04,16,15,43,11.60
2009,04,16,15,44,11.50
2009,04,16,15,45,11.60
2009,04,16,15,46,11.50
2009,04,16,15,47,11.50
2009,04,16,15,48,11.60
2009,04,16,15,49,11.70
2009,04,16,15,50,11.70
2009,04,16,15,51,11.70
2009,04,16,15,52,11.70
2009,04,16,15,53,11.70
2009,04,16,15,54,11.70
2009,04,16,15,55,11.70
2009,04,16,15,56,11.70
2009,04,16,15,57,11.70
2009,04,16,15,58,11.60
2009,04,16,15,59,11.60
2009,04,16,16,00,11.60
2009,04,16,16,01,11.60
2009,04,16,16,02,11.60
2009,04,16,16,03,11.60
2009,04,16,16,04,11.60
2009,04,16,16,05,11.60
2009,04,16,16,06,11.60
2009,04,16,16,07,11.60
2009,04,16,16,08,11.70
2009,04,16,16,09,11.80
2009,04,16,16,10,11.80
2009,04,16,16,11,11.80
2009,04,16,16,12,11.90
2009,04,16,16,13,11.90
2009,04,16,16,14,11.90
2009,04,16,16,15,11.90
2009,04,16,16,16,11.90
2009,04,16,16,17,12.00
2009,04,16,16,18,12.00
2009,04,16,16,19,11.90
2009,04,16,16,20,11.90
2009,04,16,16,21,11.90
2009,04,16,16,22,11.90
2009,04,16,16,23,11.90
2009,04,16,16,24,11.90
2009,04,16,16,25,12.00
2009,04,16,16,26,11.90
2009,04,16,16,27,11.90
2009,04,16,16,28,11.90
2009,04,16,16,29,11.80
2009,04,16,16,30,11.80
2009,04,16,16,31,11.80
2009,04,16,16,32,11.80
2009,04,16,16,33,11.80
2009,04,16,16,34,11.80
2009,04,16,16,35,11.80
2009,04,16,16,36,11.80
2009,04,16,16,37,11.70
2009,04,16,16,38,11.70
2009,04,16,16,39,11.60
2009,04,16,16,40,11.60
2009,04,16,16,41,11.60
2009,04,16,16,42,11.60
2009,04,16,16,43,11.60
2009,04,16,16,44,11.60
2009,04,16,16,45,11.60
2009,04,16,16,46,11.70
2009,04,16,16,47,11.60
2009,04,16,16,48,11.60
2009,04,16,16,49,11.60
2009,04,16,16,50,11.60
2009,04,16,16,51,11.60
2009,04,16,16,52,11.60
2009,04,16,16,53,11.50
2009,04,16,16,54,11.60
2009,04,16,16,55,11.50
2009,04,16,16,56,11.50
2009,04,16,16,57,11.50
2009,04,16,16,58,11.50
2009,04,16,16,59,11.50
2009,04,16,17,00,11.50
2009,04,16,17,01,11.40
2009,04,16,17,02,11.40
2009,04,16,17,03,11.40
2009,04,16,17,04,11.40
2009,04,16,17,05,11.40
2009,04,16,17,06,11.40
2009,04,16,17,07,11.40
2009,04,16,17,08,11.40
2009,04,16,17,09,11.30
2009,04,16,17,10,11.30
2009,04,16,17,11,11.30
2009,04,16,17,12,11.20
2009,04,16,17,13,11.20
2009,04,16,17,14,11.20
2009,04,16,17,15,11.20
2009,04,16,17,16,11.20
2009,04,16,17,17,11.20
2009,04,16,17,18,11.20
2009,04,16,17,19,11.20
2009,04,16,17,20,11.10
2009,04,16,17,21,11.10
2009,04,16,17,22,11.10
2009,04,16,17,23,11.10
2009,04,16,17,24,11.20
2009,04,16,17,25,11.20
2009,04,16,17,26,11.20
2009,04,16,17,27,11.10
2009,04,16,17,28,11.10
2009,04,16,17,29,11.20
2009,04,16,17,30,11.20
2009,04,16,17,31,11.20
2009,04,16,17,32,11.20
2009,04,16,17,33,11.20
2009,04,16,17,34,11.20
2009,04,16,17,35,11.20
2009,04,16,17,36,11.20
2009,04,16,17,37,11.20
2009,04,16,17,38,11.20
2009,04,16,17,39,11.20
2009,04,16,17,40,11.20
2009,04,16,17,41,11.20
2009,04,16,17,42,11.20
2009,04,16,17,43,11.10
2009,04,16,17,44,11.10
2009,04,16,17,45,11.10
2009,04,16,17,46,11.10
2009,04,16,17,47,11.10
2009,04,16,17,48,11.00
2009,04,16,17,49,11.00
2009,04,16,17,50,11.00
2009,04,16,17,51,11.00
2009,04,16,17,52,11.00
2009,04,16,17,53,11.00
2009,04,16,17,54,11.00
2009,04,16,17,55,11.00